Skip Page Navigation
NASA JPL Caltech
NASA Logo - Jet Propulsion Laboratory + View the NASA Portal
+ Center for Near-Earth Object Studies
JPL Home Earth Solar System Stars & Galaxies Technology
JPL Solar System Dynamics
BODIES ORBITS EPHEMERIDES TOOLS PHYSICAL DATA DISCOVERY FAQ SITE MAP
IMPORTANT: The SSD Announcement email list is now available. Major changes are coming in the near future, including possible hostname and/or URL changes. To be notified of such changes, subscribe to this email list.

Please visit this page for more details.


JPL Small-Body Database Browser
Search: [ help ]  
160684 (2000 EL10)
Classification: Main-belt Asteroid          SPK-ID: 2160684
Ephemeris | Orbit Diagram | Orbital Elements | Mission Design | Physical Parameters | Discovery Circumstances | Close-Approach Data ]

[ show orbit diagram ]
Orbital Elements at Epoch 2458600.5 (2019-Apr-27.0) TDB
Reference: JPL 14 (heliocentric ecliptic J2000)
 Element Value Uncertainty (1-sigma)   Units 
e .1765802717597338 5.2776e-08  
a 2.359811478127072 1.1882e-08 au
q 1.943115326017655 1.2394e-07 au
i .7724769060141657 5.5798e-06 deg
node 31.67772729577547 0.00039823 deg
peri 72.47826707932502 0.00039883 deg
M 149.8060695050536 1.8467e-05 deg
tp 2458049.513067010665
(2017-Oct-23.01306701)
6.7026e-05 TDB
period 1324.080503089824
3.63
1.0001e-05
2.738e-08
d
yr
n .2718867917471163 2.0535e-09 deg/d
Q 2.77650763023649 1.398e-08 au
  Orbit Determination Parameters
   # obs. used (total)      367  
   data-arc span      7092 days (19.42 yr)  
   first obs. used      1998-09-26  
   last obs. used      2018-02-25  
   planetary ephem.      DE431  
   SB-pert. ephem.      SB431-N16  
   condition code      0  
   norm. resid. RMS      .56791  
   source      ORB  
   producer      Otto Matic  
   solution date      2018-Mar-06 01:06:24  

Additional Information
 Earth MOID = .960324 au 
 Jupiter MOID = 2.36107 au 
 T_jup = 3.531 
[ show covariance matrix ]

Ephemeris | Orbit Diagram | Orbital Elements | Mission Design | Physical Parameters | Discovery Circumstances | Close-Approach Data ]

Physical Parameter Table
Parameter Symbol Value Units Sigma Reference Notes
absolute magnitude H 17.1   n/a MPO273310  

160684 (2000 EL10)          Discovered 2000-Mar-03 by LINEAR at Socorro
Reference: 20070828/Numbers.arcLast Updated: 2007-08-30

[ show close-approach data ]
Alternate Designations
 2000 EL10 = 2006 YJ17 
Ephemeris | Orbit Diagram | Orbital Elements | Mission Design | Physical Parameters | Discovery Circumstances | Close-Approach Data ]
ABOUT SSD CREDITS/AWARDS PRIVACY/COPYRIGHT GLOSSARY LINKS
FirstGov
(server date/time)  
NASA Home Page
Site Manager:   Ryan S. Park
Webmaster  Alan B. Chamberlin